Flag for Germany Weather past 2 weeks in Landsberg am Lech, Bavaria, Germany

Now
45 °F

Passing clouds.


Feels Like: 45 °F
Forecast: 28 / 47 °F
Wind: No wind

Location: Landsberg


UV Index: 0 (Low)

Visibility: N/A


Pressure: 30.01 "Hg

Humidity: 46%

Dew point: 25 °F

Location of Landsberg am LechLocation

Historic Weather in Landsberg am Lech

°F

Landsberg am Lech temperature yesterday

Maximum temperature yesterday: 46 °F (at 4:20 PM)
Minimum temperature yesterday: 30 °F (at 5:20 AM)
Average temperature yesterday: 38 °F

Past Weeks' High & Low Weather Summary

 TemperatureHumidityPressure
High68 °F (Apr 3, 1:20 PM)100% (Apr 11, 5:20 AM)30.33 "Hg (Apr 11, 5:20 AM)
Low30 °F (Apr 16, 5:20 AM)28% (Apr 7, 5:20 PM)29.68 "Hg (Apr 3, 4:20 PM)
Average49 °F68%30.05 "Hg
* Reported Apr 2 9:20 PM — Apr 17 9:20 PM, Landsberg am Lech, Weather by CustomWeather, © 2014

Note: Actual official high and low records may vary slightly from our data, if they occured in-between our weather recording intervals... More about our weather records

Advertising

Historic Weather Conditions — Data for Previous 24 hours

 ConditionsComfort  
Time TempWeatherWind HumidityBarometerVisibility
9:20 PM
Apr 17
45 °FPassing clouds.No wind46%30.01 "HgN/A
8:20 PM46 °FBroken clouds.3 mph46%30.01 "HgN/A
6:20 PM52 °FScattered clouds.5 mph30%30.04 "HgN/A
5:20 PM52 °FPassing clouds.3 mph30%30.07 "HgN/A
4:20 PM54 °FPassing clouds.7 mph30%30.09 "HgN/A
3:20 PM52 °FPassing clouds.8 mph30%30.12 "HgN/A
2:20 PM50 °FPassing clouds.7 mph32%30.15 "HgN/A
1:20 PM50 °FCool.10 mph32%30.18 "HgN/A
12:20 PM48 °FCool.10 mph37%30.21 "HgN/A
11:20 AM46 °FPassing clouds.10 mph37%30.21 "HgN/A
10:20 AM45 °FPassing clouds.12 mph42%30.21 "HgN/A
9:20 AM41 °FPassing clouds.9 mph66%30.24 "HgN/A
8:20 AM37 °FPassing clouds.8 mph75%30.24 "HgN/A
7:20 AM32 °FPassing clouds.5 mph87%30.24 "HgN/A
6:20 AM32 °FPassing clouds.5 mph80%30.24 "HgN/A
5:20 AM32 °FChilly.3 mph80%30.27 "HgN/A
4:20 AM30 °FChilly.3 mph86%30.27 "HgN/A
3:20 AM32 °FPassing clouds.3 mph80%30.30 "HgN/A
2:20 AM34 °FPassing clouds.3 mph75%30.30 "HgN/A
1:20 AM36 °FPassing clouds.5 mph75%30.30 "HgN/A
12:20 AM34 °FPassing clouds.3 mph81%30.33 "HgN/A
11:20 PM
Apr 16
32 °FPassing clouds.3 mph87%30.33 "HgN/A
10:20 PM34 °FPassing clouds.2 mph87%30.33 "HgN/A
Weather by CustomWeather, © 2014

See weather overview